GW0500 Weather Reports


Display with metric or nautical units.
time (UTC)temp
F
wind
direction
speed
MPH
gust
MPH
rain 1hr
in
rain 24hr
in
rain mn
in
humidity
%
barometer
mb
20260902210119 78 144 1.0 9.0 0.00 0.00 0.00 17 1021.6
20260902205547 78 19 2.0 9.0 0.00 0.00 0.00 16 1021.6
20260902205047 78 173 3.0 11.0 0.00 0.00 0.00 18 1021.4
20260902204603 77 201 2.0 11.0 0.00 0.00 0.00 19 1021.4
20260902204045 77 157 2.0 14.0 0.00 0.00 0.00 19 1021.4
20260902203545 77 150 3.0 14.0 0.00 0.00 0.00 18 1021.6
20260902203106 77 310 5.0 14.0 0.00 0.00 0.00 17 1021.6
20260902202546 77 184 3.0 10.0 0.00 0.00 0.00 17 1021.6
20260902202048 77 147 2.0 10.0 0.00 0.00 0.00 17 1021.7
20260902201613 77 136 2.0 9.0 0.00 0.00 0.00 18 1021.6
20260902201045 77 132 3.0 10.0 0.00 0.00 0.00 19 1021.7
20260902200546 77 184 2.0 10.0 0.00 0.00 0.00 19 1021.8
20260902200100 76 0 2.0 10.0 0.00 0.00 0.00 20 1021.8
20260902195545 76 287 3.0 14.0 0.00 0.00 0.00 21 1021.9
20260902195044 76 137 2.0 14.0 0.00 0.00 0.00 23 1021.9
20260902194559 76 279 3.0 9.0 0.00 0.00 0.00 23 1021.9
20260902194048 76 63 3.0 14.0 0.00 0.00 0.00 23 1021.9
20260902193546 76 145 1.0 14.0 0.00 0.00 0.00 23 1021.9
20260902193104 76 166 2.0 12.0 0.00 0.00 0.00 22 1022.0
20260902192546 75 0 3.0 12.0 0.00 0.00 0.00 20 1021.9
20260902192045 75 229 2.0 12.0 0.00 0.00 0.00 20 1022.0
20260902191605 75 57 1.0 12.0 0.00 0.00 0.00 22 1022.0
20260902191044 75 200 2.0 12.0 0.00 0.00 0.00 23 1021.9
20260902190546 74 178 3.0 10.0 0.00 0.00 0.00 23 1022.0
20260902190104 74 150 2.0 10.0 0.00 0.00 0.00 22 1022.0
20260902185542 74 250 3.0 9.0 0.00 0.00 0.00 21 1022.1
20260902185045 74 182 1.0 8.0 0.00 0.00 0.00 23 1022.0
20260902184600 73 159 1.0 13.0 0.00 0.00 0.00 21 1022.1
20260902184050 73 221 2.0 13.0 0.00 0.00 0.00 21 1022.2
20260902183548 73 192 3.0 11.0 0.00 0.00 0.00 20 1022.2
20260902183105 73 170 1.0 8.0 0.00 0.00 0.00 21 1022.1
20260902182544 72 159 2.0 8.0 0.00 0.00 0.00 20 1022.2
20260902182050 72 159 3.0 8.0 0.00 0.00 0.00 20 1022.3
20260902181606 72 0 1.0 11.0 0.00 0.00 0.00 22 1022.3
20260902181043 72 169 2.0 11.0 0.00 0.00 0.00 22 1022.3
20260902180545 71 194 3.0 13.0 0.00 0.00 0.00 20 1022.3
20260902180117 71 315 2.0 13.0 0.00 0.00 0.00 20 1022.2
20260902175547 71 176 3.0 8.0 0.00 0.00 0.00 20 1022.4
20260902175044 71 102 2.0 8.0 0.00 0.00 0.00 21 1022.3
20260902174604 71 153 2.0 7.0 0.00 0.00 0.00 22 1022.4
20260902174045 71 189 2.0 7.0 0.00 0.00 0.00 22 1022.2
20260902173546 70 269 1.0 11.0 0.00 0.00 0.00 21 1022.3
20260902173101 70 181 2.0 11.0 0.00 0.00 0.00 21 1022.3
20260902172545 70 203 3.0 8.0 0.00 0.00 0.00 21 1022.3
20260902172046 70 217 2.0 6.0 0.00 0.00 0.00 24 1022.2
20260902171601 70 182 1.0 6.0 0.00 0.00 0.00 23 1022.0
20260902171042 70 0 1.0 6.0 0.00 0.00 0.00 22 1022.0
20260902170545 70 0 1.0 6.0 0.00 0.00 0.00 22 1022.0
20260902170111 70 155 1.0 8.0 0.00 0.00 0.00 23 1022.1
20260902165546 69 0 1.0 8.0 0.00 0.00 0.00 23 1022.0
20260902165047 69 136 2.0 8.0 0.00 0.00 0.00 24 1022.0
20260902164601 69 209 1.0 10.0 0.00 0.00 0.00 24 1022.0
20260902164046 69 157 4.0 10.0 0.00 0.00 0.00 23 1022.0
20260902163545 68 0 1.0 7.0 0.00 0.00 0.00 24 1021.9
20260902163056 68 257 2.0 7.0 0.00 0.00 0.00 23 1021.9
20260902162545 67 169 1.0 8.0 0.00 0.00 0.00 24 1021.8
20260902162046 67 83 1.0 8.0 0.00 0.00 0.00 25 1021.8
20260902161605 67 0 0.0 4.0 0.00 0.00 0.00 25 1021.8
20260902161044 67 99 0.0 5.0 0.00 0.00 0.00 25 1021.8
20260902160545 66 155 0.0 6.0 0.00 0.00 0.00 26 1021.9
20260902160112 66 155 1.0 6.0 0.00 0.00 0.00 25 1021.7
20260902155543 65 192 1.0 6.0 0.00 0.00 0.00 26 1021.7
20260902155050 64 0 1.0 7.0 0.00 0.00 0.00 27 1021.7
20260902154559 64 155 1.0 7.0 0.00 0.00 0.00 28 1021.6
20260902154045 62 178 1.0 7.0 0.00 0.00 0.00 28 1021.6
20260902153545 61 151 0.0 5.0 0.00 0.00 0.00 30 1021.5
20260902153104 60 190 0.0 4.0 0.00 0.00 0.00 30 1021.5
20260902152542 59 72 0.0 4.0 0.00 0.00 0.00 33 1021.5
20260902152045 59 75 1.0 3.0 0.00 0.00 0.00 33 1021.4
20260902151601 58 55 0.0 3.0 0.00 0.00 0.00 32 1021.5
20260902151046 57 37 1.0 4.0 0.00 0.00 0.00 33 1021.5
20260902150544 57 0 0.0 4.0 0.00 0.00 0.00 34 1021.5
20260902150059 57 0 1.0 4.0 0.00 0.00 0.00 34 1021.5
20260902145546 56 0 0.0 2.0 0.00 0.00 0.00 33 1021.5
20260902145045 56 0 0.0 2.0 0.00 0.00 0.00 34 1021.4
20260902144606 56 0 0.0 3.0 0.00 0.00 0.00 34 1021.5
20260902144047 56 0 0.0 3.0 0.00 0.00 0.00 34 1021.5
20260902143542 56 0 0.0 3.0 0.00 0.00 0.00 34 1021.5
20260902143100 56 0 0.0 1.0 0.00 0.00 0.00 34 1021.5
20260902142545 56 0 0.0 2.0 0.00 0.00 0.00 34 1021.5
20260902142043 56 0 0.0 3.0 0.00 0.00 0.00 34 1021.4
20260902141602 55 0 0.0 3.0 0.00 0.00 0.00 34 1021.4
20260902141043 55 0 0.0 3.0 0.00 0.00 0.00 34 1021.4
20260902140544 55 0 0.0 2.0 0.00 0.00 0.00 34 1021.3
20260902135545 54 0 0.0 2.0 0.00 0.00 0.00 34 1021.1
20260902135044 54 70 0.0 1.0 0.00 0.00 0.00 34 1021.2
20260902134601 54 0 0.0 1.0 0.00 0.00 0.00 34 1021.1
20260902134044 54 0 0.0 1.0 0.00 0.00 0.00 33 1021.0
20260902133544 54 0 0.0 1.0 0.00 0.00 0.00 33 1021.0
20260902133100 54 0 0.0 1.0 0.00 0.00 0.00 32 1020.8
20260902132545 54 0 0.0 0.0 0.00 0.00 0.00 32 1020.8
20260902132045 54 0 0.0 0.0 0.00 0.00 0.00 31 1020.8
20260902131604 54 0 0.0 0.0 0.00 0.00 0.00 32 1020.8
20260902131047 54 0 0.0 0.0 0.00 0.00 0.00 32 1020.7
20260902130547 54 0 0.0 0.0 0.00 0.00 0.00 32 1020.7
20260902130106 54 0 0.0 0.0 0.00 0.00 0.00 33 1020.7
20260902125545 54 0 0.0 0.0 0.00 0.00 0.00 32 1020.7
20260902125045 54 0 0.0 0.0 0.00 0.00 0.00 33 1020.7
20260902124556 54 0 0.0 1.0 0.00 0.00 0.00 32 1020.8
20260902124047 54 0 0.0 1.0 0.00 0.00 0.00 31 1020.6
20260902123546 54 0 0.0 1.0 0.00 0.00 0.00 32 1020.8
20260902123059 54 0 0.0 1.0 0.00 0.00 0.00 32 1020.8
20260902122546 54 0 0.0 0.0 0.00 0.00 0.00 33 1020.8
20260902122044 55 0 0.0 0.0 0.00 0.00 0.00 34 1020.8
20260902121600 55 0 0.0 0.0 0.00 0.00 0.00 34 1020.8
20260902121045 55 0 0.0 0.0 0.00 0.00 0.00 35 1020.8
20260902120545 55 0 0.0 2.0 0.00 0.00 0.00 36 1020.7
20260902120059 55 0 0.0 2.0 0.00 0.00 0.00 37 1020.8
20260902115547 55 0 0.0 2.0 0.00 0.00 0.00 37 1020.8
20260902115044 55 0 0.0 1.0 0.00 0.00 0.00 37 1020.9
20260902114603 55 0 0.0 3.0 0.00 0.00 0.00 36 1020.8
20260902114044 55 0 0.0 3.0 0.00 0.00 0.00 36 1020.8
20260902113544 54 0 0.0 2.0 0.00 0.00 0.00 34 1020.8
20260902113102 54 0 0.0 2.0 0.00 0.00 0.00 33 1020.8
20260902112547 54 0 0.0 2.0 0.00 0.00 0.00 34 1020.8
20260902112047 54 92 0.0 1.0 0.00 0.00 0.00 33 1020.9
20260902111604 54 0 0.0 2.0 0.00 0.00 0.00 33 1020.8
20260902111048 54 0 0.0 2.0 0.00 0.00 0.00 33 1020.8
20260902110548 54 0 0.0 0.0 0.00 0.00 0.00 33 1020.9
20260902110104 54 0 0.0 0.0 0.00 0.00 0.00 34 1020.9
20260902105548 54 0 0.0 0.0 0.00 0.00 0.00 33 1021.1
20260902105044 55 0 0.0 0.0 0.00 0.00 0.00 34 1021.1
20260902104603 55 0 0.0 0.0 0.00 0.00 0.00 34 1021.1
20260902104045 55 0 0.0 0.0 0.00 0.00 0.00 34 1021.1
20260902103546 55 0 0.0 0.0 0.00 0.00 0.00 35 1021.2
20260902103103 55 0 0.0 0.0 0.00 0.00 0.00 35 1021.2
20260902102547 55 0 0.0 1.0 0.00 0.00 0.00 34 1021.3
20260902102044 55 0 0.0 1.0 0.00 0.00 0.00 35 1021.2
20260902101602 55 0 0.0 1.0 0.00 0.00 0.00 34 1021.3
20260902101045 55 0 0.0 1.0 0.00 0.00 0.00 34 1021.4
20260902100547 55 0 0.0 1.0 0.00 0.00 0.00 35 1021.4
20260902100110 55 0 0.0 1.0 0.00 0.00 0.00 35 1021.4
20260902095545 55 0 0.0 1.0 0.00 0.00 0.00 34 1021.4
20260902095047 55 0 0.0 1.0 0.00 0.00 0.00 34 1021.4
20260902094616 55 0 0.0 1.0 0.00 0.00 0.00 34 1021.4
20260902094047 54 0 0.0 1.0 0.00 0.00 0.00 34 1021.4
20260902093547 54 0 0.0 1.0 0.00 0.00 0.00 35 1021.5
20260902093100 54 0 0.0 1.0 0.00 0.00 0.00 35 1021.5
20260902092545 54 0 0.0 2.0 0.00 0.00 0.00 34 1021.4
20260902092047 54 0 0.0 2.0 0.00 0.00 0.00 35 1021.5
20260902091602 54 0 0.0 1.0 0.00 0.00 0.00 34 1021.4
20260902091049 54 115 0.0 1.0 0.00 0.00 0.00 35 1021.5
20260902090547 54 0 0.0 0.0 0.00 0.00 0.00 35 1021.5
20260902085549 54 0 0.0 2.0 0.00 0.00 0.00 35 1021.6
20260902085048 54 0 0.0 2.0 0.00 0.00 0.00 35 1021.7
20260902084606 54 0 0.0 1.0 0.00 0.00 0.00 35 1021.7
20260902084046 54 0 0.0 1.0 0.00 0.00 0.00 35 1021.7
20260902083548 54 0 0.0 1.0 0.00 0.00 0.00 34 1021.7
20260902083058 54 115 0.0 1.0 0.00 0.00 0.00 34 1021.6
20260902082546 54 0 0.0 1.0 0.00 0.00 0.00 34 1021.7
20260902082045 54 0 0.0 1.0 0.00 0.00 0.00 34 1021.8
20260902081602 54 0 0.0 1.0 0.00 0.00 0.00 34 1021.7
20260902081048 54 0 0.0 1.0 0.00 0.00 0.00 34 1021.7
20260902080547 54 0 0.0 1.0 0.00 0.00 0.00 34 1021.7
20260902080113 54 0 0.0 2.0 0.00 0.00 0.00 34 1021.6
20260902075549 54 0 0.0 2.0 0.00 0.00 0.00 34 1021.7
20260902075048 54 0 0.0 2.0 0.00 0.00 0.00 34 1021.7
20260902074600 54 0 0.0 2.0 0.00 0.00 0.00 34 1021.7
20260902074045 54 0 0.0 2.0 0.00 0.00 0.00 34 1021.7
20260902073547 54 0 0.0 1.0 0.00 0.00 0.00 33 1021.7
20260902073057 54 0 0.0 1.0 0.00 0.00 0.00 33 1021.7
20260902072547 54 0 0.0 1.0 0.00 0.00 0.00 33 1021.7
20260902072049 54 0 0.0 0.0 0.00 0.00 0.00 33 1021.6
20260902071603 54 0 0.0 1.0 0.00 0.00 0.00 33 1021.6
20260902071044 54 0 0.0 1.0 0.00 0.00 0.00 33 1021.6
20260902070545 54 0 0.0 1.0 0.00 0.00 0.00 32 1021.6
20260902070107 54 0 0.0 1.0 0.00 0.00 0.00 34 1021.6
20260902065545 54 0 0.0 1.0 0.00 0.00 0.00 33 1021.6
20260902065044 54 0 0.0 1.0 0.00 0.00 0.00 34 1021.7
20260902064611 54 0 0.0 1.0 0.00 0.00 0.00 32 1021.7
20260902064045 54 0 0.0 1.0 0.00 0.00 0.00 33 1021.6
20260902063545 54 0 0.0 1.0 0.00 0.00 0.00 33 1021.6
20260902063106 54 0 0.0 1.0 0.00 0.00 0.00 34 1021.6
20260902062545 54 0 0.0 1.0 0.00 0.00 0.00 35 1021.5
20260902062044 55 0 0.0 2.0 0.00 0.00 0.00 35 1021.5
20260902061604 55 0 0.0 2.0 0.00 0.00 0.00 35 1021.5
20260902061046 54 0 1.0 2.0 0.00 0.00 0.00 36 1021.3
20260902060544 55 0 0.0 2.0 0.00 0.00 0.00 36 1021.2
20260902060113 55 0 0.0 2.0 0.00 0.00 0.00 36 1021.1
20260902055543 55 0 0.0 2.0 0.00 0.00 0.00 36 1021.0
20260902055045 55 0 0.0 2.0 0.00 0.00 0.00 39 1021.1
20260902054600 55 0 0.0 1.0 0.00 0.00 0.00 41 1021.1
20260902054044 55 0 0.0 1.0 0.00 0.00 0.00 43 1021.1
20260902053544 55 0 0.0 1.0 0.00 0.00 0.00 44 1021.2
20260902053124 55 0 0.0 0.0 0.00 0.00 0.00 43 1021.3
20260902052546 55 0 0.0 0.0 0.00 0.00 0.00 43 1021.3
20260902052045 55 0 0.0 1.0 0.00 0.00 0.00 47 1021.2
20260902051606 55 0 0.0 1.0 0.00 0.00 0.00 49 1021.4
20260902051043 55 0 0.0 1.0 0.00 0.00 0.00 50 1021.3
20260902050545 55 0 0.0 0.0 0.00 0.00 0.00 50 1021.4
20260902050107 56 0 0.0 0.0 0.00 0.00 0.00 49 1021.3
20260902045545 56 0 0.0 0.0 0.00 0.00 0.00 49 1021.3
20260902045044 56 0 0.0 1.0 0.00 0.00 0.00 48 1021.3
20260902044601 56 0 0.0 1.0 0.00 0.00 0.00 48 1021.4
20260902044044 56 0 0.0 1.0 0.00 0.00 0.00 48 1021.3
20260902043544 56 0 0.0 1.0 0.00 0.00 0.00 49 1021.3
20260902043103 56 0 0.0 1.0 0.00 0.00 0.00 49 1021.2
20260902042542 57 0 0.0 1.0 0.00 0.00 0.00 49 1021.1
20260902042044 57 0 0.0 1.0 0.00 0.00 0.00 50 1021.0
20260902041600 57 0 0.0 1.0 0.00 0.00 0.00 50 1020.9
20260902041042 57 0 0.0 0.0 0.00 0.00 0.00 52 1020.9
20260902040544 58 0 0.0 0.0 0.00 0.00 0.00 51 1020.8
20260902035549 58 0 0.0 0.0 0.00 0.00 0.00 51 1020.9
20260902035046 59 0 0.0 0.0 0.00 0.00 0.00 52 1020.8
20260902034607 59 0 0.0 0.0 0.00 0.00 0.00 54 1020.6
20260902034043 59 0 0.0 0.0 0.00 0.00 0.00 54 1020.6
20260902033546 60 0 0.0 1.0 0.00 0.00 0.00 54 1020.5
20260902033107 60 0 0.0 2.0 0.00 0.00 0.00 53 1020.5
20260902032545 60 0 0.0 2.0 0.00 0.00 0.00 53 1020.4
20260902032045 61 124 0.0 2.0 0.00 0.00 0.00 53 1020.4
20260902031609 61 0 0.0 1.0 0.00 0.00 0.00 53 1020.3
20260902031045 62 0 0.0 0.0 0.00 0.00 0.00 53 1020.2
20260902030550 62 0 0.0 1.0 0.00 0.00 0.00 52 1020.1
20260902030056 62 0 0.0 1.0 0.00 0.00 0.00 52 1020.1
20260902025545 63 0 0.0 2.0 0.00 0.00 0.00 52 1020.0
20260902025045 63 0 0.0 2.0 0.00 0.00 0.00 52 1020.0
20260902024608 64 0 0.0 2.0 0.00 0.00 0.00 51 1019.9
20260902024045 64 0 0.0 2.0 0.00 0.00 0.00 52 1020.0
20260902023631 64 126 0.0 3.0 0.00 0.00 0.00 51 1020.0
20260902023056 65 0 0.0 3.0 0.00 0.00 0.00 51 1019.9
20260902022545 65 0 0.0 3.0 0.00 0.00 0.00 50 1020.0
20260902022045 65 0 0.0 1.0 0.00 0.00 0.00 48 1019.9
20260902021612 66 0 0.0 1.0 0.00 0.00 0.00 48 1020.0
20260902021044 66 0 0.0 1.0 0.00 0.00 0.00 47 1019.8
20260902020548 67 85 0.0 2.0 0.00 0.00 0.00 46 1019.9
20260902015544 67 0 0.0 3.0 0.00 0.00 0.00 43 1019.9
20260902015043 67 232 0.0 3.0 0.00 0.00 0.00 40 1020.0
20260902014650 67 338 0.0 3.0 0.00 0.00 0.00 39 1020.0
20260902014048 68 182 0.0 3.0 0.00 0.00 0.00 38 1020.0
20260902013700 68 46 0.0 7.0 0.00 0.00 0.00 38 1019.9
20260902013105 68 26 1.0 7.0 0.00 0.00 0.00 36 1019.9
20260902012548 69 37 1.0 4.0 0.00 0.00 0.00 39 1019.9
20260902012045 69 75 1.0 4.0 0.00 0.00 0.00 37 1020.0
20260902011603 69 0 1.0 8.0 0.00 0.00 0.00 39 1020.0
20260902011047 69 5 0.0 8.0 0.00 0.00 0.00 39 1020.1
20260902010546 70 280 1.0 6.0 0.00 0.00 0.00 38 1020.1
20260902010107 70 41 1.0 5.0 0.00 0.00 0.00 39 1020.0
20260902005547 71 0 1.0 5.0 0.00 0.00 0.00 39 1020.1
20260902005044 71 144 1.0 4.0 0.00 0.00 0.00 40 1020.1
20260902004600 72 0 0.0 5.0 0.00 0.00 0.00 40 1020.2
20260902004049 72 0 1.0 6.0 0.00 0.00 0.00 40 1020.3
20260902003548 72 254 1.0 6.0 0.00 0.00 0.00 40 1020.2
20260902003107 73 360 1.0 10.0 0.00 0.00 0.00 39 1020.1
20260902002547 73 167 1.0 10.0 0.00 0.00 0.00 40 1020.2
20260902002046 73 210 1.0 10.0 0.00 0.00 0.00 40 1020.3
20260902001605 73 250 3.0 8.0 0.00 0.00 0.00 40 1020.2
20260902001046 74 147 1.0 9.0 0.00 0.00 0.00 39 1020.3
20260902000547 74 212 3.0 9.0 0.00 0.00 0.00 38 1020.3
20260902000100 74 65 2.0 7.0 0.00 0.00 0.00 38 1020.3
20260901235546 75 0 1.0 8.0 0.00 0.00 0.00 40 1020.3
20260901235047 75 100 2.0 8.0 0.00 0.00 0.00 40 1020.4
20260901234601 75 211 2.0 8.0 0.00 0.00 0.00 41 1020.5
20260901234047 75 80 3.0 8.0 0.00 0.00 0.00 41 1020.5
20260901233548 76 120 2.0 6.0 0.00 0.00 0.00 40 1020.5
20260901233105 77 0 2.0 9.0 0.00 0.00 0.00 41 1020.6
20260901232544 77 170 3.0 9.0 0.00 0.00 0.00 39 1020.6
20260901232046 77 62 1.0 10.0 0.00 0.00 0.00 40 1020.6
20260901231600 77 351 1.0 15.0 0.00 0.00 0.00 39 1020.8
20260901231046 78 146 3.0 15.0 0.00 0.00 0.00 40 1020.7
20260901230545 78 0 1.0 7.0 0.00 0.00 0.00 40 1020.6
20260901230100 79 102 1.0 6.0 0.00 0.00 0.00 39 1020.8
20260901225549 79 73 2.0 10.0 0.00 0.00 0.00 37 1020.6
20260901225042 79 172 2.0 10.0 0.00 0.00 0.00 39 1020.7
20260901224601 78 236 2.0 9.0 0.00 0.00 0.00 38 1020.7
20260901224046 78 174 2.0 9.0 0.00 0.00 0.00 39 1020.7
20260901223545 78 137 1.0 9.0 0.00 0.00 0.00 38 1020.6
20260901223100 78 225 2.0 10.0 0.00 0.00 0.00 38 1020.8
20260901222545 78 236 2.0 10.0 0.00 0.00 0.00 37 1020.8
20260901222045 78 168 2.0 9.0 0.00 0.00 0.00 36 1020.8
20260901221559 79 207 2.0 9.0 0.00 0.00 0.00 36 1020.9
20260901221045 78 219 1.0 11.0 0.00 0.00 0.00 36 1021.0
20260901220546 78 176 3.0 12.0 0.00 0.00 0.00 36 1021.0
20260901220108 78 136 3.0 12.0 0.00 0.00 0.00 35 1021.1
20260901215545 78 251 3.0 10.0 0.00 0.00 0.00 35 1021.1
20260901215045 78 130 2.0 8.0 0.00 0.00 0.00 36 1021.2
20260901214559 78 211 2.0 12.0 0.00 0.00 0.00 36 1021.2
20260901214044 79 200 2.0 17.0 0.00 0.00 0.00 38 1021.5
20260901213549 78 169 2.0 17.0 0.00 0.00 0.00 37 1021.3
20260901213104 78 164 5.0 17.0 0.00 0.00 0.00 36 1021.4
20260901212545 78 148 2.0 9.0 0.00 0.00 0.00 37 1021.4
20260901212042 78 172 3.0 9.0 0.00 0.00 0.00 38 1021.4
20260901211602 78 217 2.0 9.0 0.00 0.00 0.00 38 1021.4
20260901211044 78 129 2.0 8.0 0.00 0.00 0.00 37 1021.4
20260901210545 78 155 2.0 8.0 0.00 0.00 0.00 37 1021.5